| time (UTC) | temp F | wind direction | speed MPH | gust MPH | rain 1hr in | rain 24hr in | rain mn in | humidity % | barometer mb |
| 20260902223036 | 81 | 171 | 8.0 | 17.0 | 0.00 | 0.00 | 0.00 | 30 | 1003.2 |
| 20260902221551 | 82 | 200 | 10.0 | 20.0 | 0.00 | 0.00 | 0.00 | 29 | 1003.2 |
| 20260902220037 | 82 | 161 | 11.0 | 18.0 | 0.00 | 0.00 | 0.00 | 28 | 1003.2 |
| 20260902214535 | 83 | 205 | 18.0 | 29.0 | 0.00 | 0.00 | 0.00 | 29 | 1003.5 |
| 20260902213036 | 82 | 172 | 11.0 | 26.0 | 0.00 | 0.00 | 0.00 | 31 | 1003.5 |
| 20260902211536 | 82 | 148 | 8.0 | 19.0 | 0.00 | 0.00 | 0.00 | 32 | 1003.7 |
| 20260902210036 | 80 | 167 | 10.0 | 19.0 | 0.00 | 0.00 | 0.00 | 32 | 1004.2 |
| 20260902204543 | 80 | 146 | 12.0 | 18.0 | 0.00 | 0.00 | 0.00 | 32 | 1004.8 |
| 20260902203036 | 78 | 149 | 10.0 | 20.0 | 0.00 | 0.00 | 0.00 | 34 | 1005.0 |
| 20260902201540 | 78 | 151 | 13.0 | 21.0 | 0.00 | 0.00 | 0.00 | 34 | 1005.3 |
| 20260902200037 | 77 | 179 | 11.0 | 20.0 | 0.00 | 0.00 | 0.00 | 37 | 1005.4 |
| 20260902194549 | 77 | 190 | 9.0 | 16.0 | 0.00 | 0.00 | 0.00 | 38 | 1005.4 |
| 20260902193037 | 76 | 158 | 10.0 | 15.0 | 0.00 | 0.00 | 0.00 | 38 | 1005.5 |
| 20260902191546 | 76 | 209 | 10.0 | 19.0 | 0.00 | 0.00 | 0.00 | 38 | 1005.7 |
| 20260902190036 | 76 | 160 | 12.0 | 20.0 | 0.00 | 0.00 | 0.00 | 37 | 1006.0 |
| 20260902184535 | 75 | 192 | 11.0 | 20.0 | 0.00 | 0.00 | 0.00 | 40 | 1006.1 |
| 20260902183045 | 75 | 166 | 13.0 | 20.0 | 0.00 | 0.00 | 0.00 | 40 | 1006.4 |
| 20260902181533 | 75 | 215 | 9.0 | 21.0 | 0.00 | 0.00 | 0.00 | 41 | 1006.4 |
| 20260902180037 | 74 | 175 | 13.0 | 21.0 | 0.00 | 0.00 | 0.00 | 43 | 1006.6 |
| 20260902174535 | 73 | 190 | 11.0 | 20.0 | 0.00 | 0.00 | 0.00 | 43 | 1006.8 |
| 20260902173050 | 73 | 193 | 14.0 | 21.0 | 0.00 | 0.00 | 0.00 | 44 | 1006.9 |
| 20260902171534 | 73 | 214 | 12.0 | 19.0 | 0.00 | 0.00 | 0.00 | 43 | 1006.9 |
| 20260902170038 | 72 | 175 | 10.0 | 16.0 | 0.00 | 0.00 | 0.00 | 46 | 1006.9 |
| 20260902164541 | 71 | 194 | 13.0 | 19.0 | 0.00 | 0.00 | 0.00 | 46 | 1006.9 |
| 20260902163034 | 71 | 229 | 12.0 | 18.0 | 0.00 | 0.00 | 0.00 | 47 | 1006.8 |
| 20260902161536 | 70 | 214 | 10.0 | 15.0 | 0.00 | 0.00 | 0.00 | 48 | 1006.8 |
| 20260902160042 | 68 | 228 | 8.0 | 16.0 | 0.00 | 0.00 | 0.00 | 50 | 1007.1 |
| 20260902154547 | 69 | 238 | 12.0 | 18.0 | 0.00 | 0.00 | 0.00 | 49 | 1007.3 |
| 20260902153037 | 69 | 236 | 14.0 | 21.0 | 0.00 | 0.00 | 0.00 | 50 | 1007.3 |
| 20260902151538 | 66 | 236 | 11.0 | 14.0 | 0.00 | 0.00 | 0.00 | 53 | 1007.6 |
| 20260902150038 | 65 | 259 | 5.0 | 10.0 | 0.00 | 0.00 | 0.00 | 53 | 1007.6 |
| 20260902144534 | 64 | 230 | 6.0 | 12.0 | 0.00 | 0.00 | 0.00 | 53 | 1007.9 |
| 20260902143037 | 62 | 248 | 2.0 | 4.0 | 0.00 | 0.00 | 0.00 | 56 | 1008.0 |
| 20260902141538 | 61 | 249 | 2.0 | 4.0 | 0.00 | 0.00 | 0.00 | 57 | 1008.1 |
| 20260902140039 | 60 | 230 | 3.0 | 6.0 | 0.00 | 0.00 | 0.00 | 58 | 1008.1 |
| 20260902134536 | 58 | 240 | 2.0 | 5.0 | 0.00 | 0.00 | 0.00 | 62 | 1007.9 |
| 20260902133038 | 57 | 239 | 4.0 | 7.0 | 0.00 | 0.00 | 0.00 | 63 | 1007.8 |
| 20260902131542 | 57 | 200 | 6.0 | 9.0 | 0.00 | 0.00 | 0.00 | 62 | 1007.8 |
| 20260902130049 | 56 | 217 | 4.0 | 10.0 | 0.00 | 0.00 | 0.00 | 65 | 1007.6 |
| 20260902124535 | 57 | 224 | 5.0 | 8.0 | 0.00 | 0.00 | 0.00 | 62 | 1007.6 |
| 20260902123035 | 55 | 305 | 3.0 | 8.0 | 0.00 | 0.00 | 0.00 | 66 | 1007.1 |
| 20260902121539 | 56 | 325 | 4.0 | 8.0 | 0.00 | 0.00 | 0.00 | 65 | 1007.3 |
| 20260902120034 | 56 | 304 | 6.0 | 9.0 | 0.00 | 0.00 | 0.00 | 66 | 1007.5 |
| 20260902114534 | 54 | 295 | 6.0 | 10.0 | 0.00 | 0.00 | 0.00 | 71 | 1007.8 |
| 20260902113035 | 55 | 280 | 8.0 | 13.0 | 0.00 | 0.00 | 0.00 | 69 | 1007.9 |
| 20260902111534 | 56 | 257 | 10.0 | 16.0 | 0.00 | 0.00 | 0.00 | 67 | 1008.0 |
| 20260902110042 | 56 | 238 | 10.0 | 16.0 | 0.00 | 0.00 | 0.00 | 67 | 1008.1 |
| 20260902104539 | 53 | 207 | 10.0 | 13.0 | 0.00 | 0.00 | 0.00 | 69 | 1008.0 |
| 20260902103038 | 54 | 205 | 7.0 | 10.0 | 0.00 | 0.00 | 0.00 | 65 | 1007.8 |
| 20260902101536 | 55 | 175 | 5.0 | 8.0 | 0.00 | 0.00 | 0.00 | 61 | 1008.0 |
| 20260902100035 | 56 | 156 | 4.0 | 7.0 | 0.00 | 0.00 | 0.00 | 61 | 1008.2 |
| 20260902094535 | 55 | 121 | 5.0 | 8.0 | 0.00 | 0.00 | 0.00 | 62 | 1008.2 |
| 20260902093040 | 58 | 130 | 0.0 | 5.0 | 0.00 | 0.00 | 0.00 | 56 | 1007.8 |
| 20260902091536 | 59 | 174 | 3.0 | 5.0 | 0.00 | 0.00 | 0.00 | 56 | 1008.2 |
| 20260902090037 | 57 | 127 | 2.0 | 4.0 | 0.00 | 0.00 | 0.00 | 59 | 1008.5 |
| 20260902084536 | 56 | 97 | 3.0 | 7.0 | 0.00 | 0.00 | 0.00 | 60 | 1008.6 |
| 20260902083039 | 58 | 92 | 5.0 | 7.0 | 0.00 | 0.00 | 0.00 | 57 | 1008.6 |
| 20260902081542 | 61 | 141 | 5.0 | 8.0 | 0.00 | 0.00 | 0.00 | 52 | 1008.7 |
| 20260902080047 | 61 | 139 | 4.0 | 9.0 | 0.00 | 0.00 | 0.00 | 52 | 1008.6 |
| 20260902074536 | 60 | 148 | 4.0 | 8.0 | 0.00 | 0.00 | 0.00 | 53 | 1008.6 |
| 20260902073037 | 61 | 128 | 5.0 | 7.0 | 0.00 | 0.00 | 0.00 | 51 | 1008.4 |
| 20260902071540 | 62 | 137 | 6.0 | 10.0 | 0.00 | 0.00 | 0.00 | 51 | 1008.5 |
| 20260902070034 | 61 | 153 | 4.0 | 8.0 | 0.00 | 0.00 | 0.00 | 51 | 1008.6 |
| 20260902064535 | 62 | 134 | 6.0 | 7.0 | 0.00 | 0.00 | 0.00 | 50 | 1008.7 |
| 20260902063037 | 63 | 135 | 4.0 | 8.0 | 0.00 | 0.00 | 0.00 | 48 | 1008.7 |
| 20260902061536 | 64 | 119 | 4.0 | 6.0 | 0.00 | 0.00 | 0.00 | 47 | 1008.9 |
| 20260902060038 | 64 | 143 | 3.0 | 5.0 | 0.00 | 0.00 | 0.00 | 47 | 1009.0 |
| 20260902054538 | 65 | 141 | 4.0 | 9.0 | 0.00 | 0.00 | 0.00 | 47 | 1009.0 |
| 20260902053038 | 64 | 155 | 5.0 | 9.0 | 0.00 | 0.00 | 0.00 | 47 | 1009.0 |
| 20260902051535 | 65 | 136 | 8.0 | 10.0 | 0.00 | 0.00 | 0.00 | 47 | 1009.0 |
| 20260902050036 | 64 | 134 | 7.0 | 11.0 | 0.00 | 0.00 | 0.00 | 47 | 1009.0 |
| 20260902044535 | 64 | 157 | 7.0 | 11.0 | 0.00 | 0.00 | 0.00 | 47 | 1009.1 |
| 20260902043042 | 66 | 146 | 6.0 | 11.0 | 0.00 | 0.00 | 0.00 | 46 | 1009.0 |
| 20260902041534 | 67 | 155 | 7.0 | 10.0 | 0.00 | 0.00 | 0.00 | 44 | 1009.1 |
| 20260902040038 | 68 | 135 | 8.0 | 11.0 | 0.00 | 0.00 | 0.00 | 43 | 1009.2 |
| 20260902034541 | 68 | 152 | 8.0 | 11.0 | 0.00 | 0.00 | 0.00 | 42 | 1009.3 |
| 20260902033038 | 68 | 146 | 8.0 | 10.0 | 0.00 | 0.00 | 0.00 | 40 | 1009.3 |
| 20260902031537 | 68 | 146 | 6.0 | 10.0 | 0.00 | 0.00 | 0.00 | 40 | 1009.4 |
| 20260902030045 | 69 | 157 | 5.0 | 9.0 | 0.00 | 0.00 | 0.00 | 38 | 1009.3 |
| 20260902024534 | 69 | 136 | 7.0 | 10.0 | 0.00 | 0.00 | 0.00 | 38 | 1009.2 |
| 20260902023042 | 70 | 147 | 7.0 | 10.0 | 0.00 | 0.00 | 0.00 | 38 | 1009.3 |
| 20260902021543 | 72 | 126 | 6.0 | 8.0 | 0.00 | 0.00 | 0.00 | 34 | 1009.1 |
| 20260902020037 | 74 | 131 | 7.0 | 9.0 | 0.00 | 0.00 | 0.00 | 32 | 1009.1 |
| 20260902014537 | 76 | 136 | 7.0 | 9.0 | 0.00 | 0.00 | 0.00 | 30 | 1009.1 |
| 20260902013034 | 78 | 132 | 7.0 | 10.0 | 0.00 | 0.00 | 0.00 | 28 | 1009.1 |
| 20260902011536 | 79 | 132 | 8.0 | 13.0 | 0.00 | 0.00 | 0.00 | 27 | 1009.0 |
| 20260902010034 | 81 | 161 | 8.0 | 13.0 | 0.00 | 0.00 | 0.00 | 24 | 1009.0 |
| 20260902004539 | 81 | 142 | 8.0 | 11.0 | 0.00 | 0.00 | 0.00 | 25 | 1009.1 |
| 20260902003037 | 81 | 128 | 7.0 | 12.0 | 0.00 | 0.00 | 0.00 | 25 | 1009.1 |
| 20260902001534 | 81 | 144 | 8.0 | 14.0 | 0.00 | 0.00 | 0.00 | 25 | 1009.3 |
| 20260902000037 | 81 | 129 | 11.0 | 16.0 | 0.00 | 0.00 | 0.00 | 25 | 1009.5 |
| 20260901234537 | 81 | 129 | 13.0 | 17.0 | 0.00 | 0.00 | 0.00 | 26 | 1009.4 |
| 20260901233036 | 81 | 153 | 11.0 | 16.0 | 0.00 | 0.00 | 0.00 | 26 | 1009.6 |
| 20260901231535 | 81 | 165 | 10.0 | 19.0 | 0.00 | 0.00 | 0.00 | 26 | 1009.8 |
| 20260901230039 | 81 | 165 | 11.0 | 22.0 | 0.00 | 0.00 | 0.00 | 26 | 1009.8 |
| 20260901224534 | 81 | 169 | 8.0 | 17.0 | 0.00 | 0.00 | 0.00 | 26 | 1010.0 |